Location: Larrial
(48.2758°N, 4.5331°W)
Time: 15:14:12
(UTC+00:00)

BlueWalker 3 - Visible Passes

Search period start: 27 November 2022 00:00
Search period end: 07 December 2022 00:00
Orbit: 500 x 519 km, 53.2° (Epoch: 27 November)

Date Brightness Start Highest point End Pass type
(mag) Time Alt. Az. Time Alt. Az. Time Alt. Az.
27 Nov 2.0 17:28:27 10° SW 17:32:21 71° SSE 17:35:24 16° ENE visible
27 Nov 3.3 19:07:27 10° W 19:10:13 36° NW 19:10:13 36° NW visible
28 Nov 2.0 17:10:05 10° SW 17:14:00 75° SSE 17:17:47 11° ENE visible
28 Nov 2.8 18:49:08 10° W 18:52:36 42° NNW 18:52:36 42° NNW visible
29 Nov 2.6 18:30:49 10° W 18:34:34 42° N 18:34:58 41° N visible
30 Nov 2.7 18:12:28 10° W 18:16:13 42° N 18:17:19 33° NNE visible
30 Nov 5.0 19:51:38 10° WNW 19:52:08 13° WNW 19:52:08 13° WNW visible
01 Dec 2.7 17:54:08 10° W 17:57:52 41° N 17:59:39 25° NE visible
01 Dec 4.5 19:33:16 10° WNW 19:34:29 18° NW 19:34:29 18° NW visible
02 Dec 2.7 17:35:47 10° W 17:39:31 41° N 17:42:00 18° NE visible
02 Dec 3.9 19:14:54 10° WNW 19:16:50 26° NW 19:16:50 26° NW visible
03 Dec 2.7 17:17:25 10° WNW 17:21:10 40° N 17:24:22 13° ENE visible
03 Dec 3.1 18:56:32 10° WNW 18:59:12 36° NW 18:59:12 36° NW visible
04 Dec 2.7 16:59:04 10° WNW 17:02:48 40° N 17:06:30 10° ENE visible
04 Dec 2.4 18:38:09 10° WNW 18:41:35 48° N 18:41:35 48° N visible
05 Dec 2.2 18:19:45 10° WNW 18:23:35 51° NNE 18:24:02 48° NE visible
05 Dec 5.2 19:58:31 10° WNW 19:58:52 12° WNW 19:58:52 12° WNW visible
06 Dec 2.2 18:01:21 10° WNW 18:05:13 53° NNE 18:06:33 34° ENE visible
06 Dec 4.6 19:40:08 10° WNW 19:41:23 19° WNW 19:41:23 19° WNW visible
